Tracking 31027 objects as of 19-Jul-2025
HD Live streaming from Space Station
objects crossing your sky now

STARLINK-31200

Track STARLINK-31200 now!
10-day predictions
STARLINK-31200 is classified as:


NORAD ID: 58862
Int'l Code: 2024-019K
Perigee: 490.9 km
Apogee: 493.1 km
Inclination: 43.0 °
Period: 94.3 minutes
Semi major axis: 6862 km
RCS: Unknown
Launch date: January 29, 2024
Source: United States (US)
Launch site: AIR FORCE EASTERN TEST RANGE (AFETR)
Your satellite tracking list
SES-6
Track 1 satellite(s)




NASA's NSSDC Master Catalog

Two Line Element Set (TLE):
1 58862U 24019K   25199.86911794  .00092740  00000-0  33986-2 0  9999
2 58862  43.0017 129.3342 0001569 239.6906 120.3790 15.26982966 83328
Source of the keplerian elements: AFSPC